Weather Roundup
Issued by NWS

Home | Current Version | Previous Version | Text Only | Print | Product List | Glossary On
Versions: 1 2 3 4 5 6 7 8 9 10 11 12 13 14 15 16 17 18 19 20 21 22 23 24 25 26 27 28 29 30 31 32 33 34 35 36 37 38 39 40 41 42 43 44 45 46 47 48 49 50
000
NZUS93 KARX 181010
HRRWXR

CURRENT HOURLY OBSERVATIONS ACROSS
MUCH OF THE UPPER MISSISSIPPI VALLEY
NATIONAL WEATHER SERVICE LA CROSSE WI
500 AM CDT WED OCT 18 2017


...SOUTHEAST MINNESOTA...


CITY           SKY/WX    TMP DP  RH WIND       PRES   REMARKS
ROCHESTER      CLEAR     49  44  83 S13       29.93S
ROCHESTER/MAYO FAIR      52  44  76 S10       29.92S
WINONA         CLEAR     54  45  71 SE5       29.94S
AUSTIN         CLEAR     48  43  81 S6        29.92S
ALBERT LEA     CLEAR     52  46  82 S7        29.91S
DODGE CENTER   CLEAR     50  43  76 S10       29.90F
PRESTON        CLEAR     48  43  81 S9        29.95S
OWATONNA       CLEAR     50  45  81 S14       29.88F
FARIBAULT      CLEAR     48  45  87 S7        29.88S
$$

...ELSEWHERE IN MINNESOTA...


CITY           SKY/WX    TMP DP  RH WIND       PRES   REMARKS
MINNEAPOLIS    CLEAR     51  45  79 SE6       29.85F
INTNL FALLS    CLOUDY    59  38  45 S12G23    29.57F
DULUTH         CLEAR     51  43  74 SW10      29.79S
RED WING       CLEAR     54  43  66 S6        29.89S
REDWOOD FALLS  CLEAR     52  43  71 S10       29.79F
MANKATO        CLEAR     49  44  83 S7        29.87S
WORTHINGTON    CLEAR     53  45  74 S12       29.85F
FAIRMONT       CLEAR     45  42  89 S10       29.87F
$$

...SOUTHWEST WISCONSIN...


CITY           SKY/WX    TMP DP  RH WIND       PRES   REMARKS
LA CROSSE      CLEAR     56  46  69 S10       29.96S
PRAIRIE DU CHI CLEAR     52  42  68 E5        30.01S
BOSCOBEL       CLEAR     40  39  97 CALM      30.03R FOG
LONE ROCK      CLEAR     45  42  89 CALM      30.04S
PLATTEVILLE    CLEAR     50  45  83 S9        30.05S
FORT MC COY    CLEAR     52  44  75 S3        29.98S
CAMP DOUGLAS   CLEAR     51  43  74 S5        29.99S
MAUSTON-NEW LI SUNNY     54  44  67 S8        29.99S
VIROQUA        FAIR      50  45  83 S7        29.99S
WIS DELLS      CLEAR     51  42  70 S9        30.02F
$$

...ELSEWHERE IN WISCONSIN...


CITY           SKY/WX    TMP DP  RH WIND       PRES   REMARKS
MILWAUKEE      CLEAR     52  42  69 SW8       30.10S
MADISON        CLEAR     51  43  74 S9        30.06S
GREEN BAY      CLEAR     52  46  80 S8        30.01R
EAU CLAIRE     CLEAR     50  44  80 S8        29.90F
BLACK RVR FLS  FAIR      40  40 100 CALM      29.96S
MEDFORD        CLEAR     49  43  77 S8        29.94S
WAUSAU         CLEAR     48  43  82 S6        29.96S
WIS RAPIDS     CLEAR     49  44  83 S6        30.00R
MARSHFIELD     CLEAR     46  41  82 S7        29.96S
RICE LAKE      CLEAR     46  43  89 E6        29.90S
$$

...NORTHEAST IOWA...


CITY           SKY/WX    TMP DP  RH WIND       PRES   REMARKS
WATERLOO       CLEAR     49  44  83 S9        29.98S
DUBUQUE        CLEAR     47  42  83 S9        30.04F
DECORAH        CLEAR     54  45  71 S10G16    29.97R
MASON CITY     CLEAR     46  43  89 S10       29.94S
CHARLES CITY   CLEAR     48  46  93 S8        29.96S
OELWEIN        CLEAR     48  45  87 S9        30.00S
$$

...ELSEWHERE IN IOWA...


CITY           SKY/WX    TMP DP  RH WIND       PRES   REMARKS
DES MOINES     CLEAR     55  46  71 S15       29.98S
IOWA CITY      CLEAR     50  43  77 S6        30.07S
FORT DODGE     CLEAR     50  45  83 S6        29.93S
MARSHALLTOWN   CLEAR     50  45  83 S7        29.98S
CEDAR RAPIDS   CLEAR     49  44  83 S8        30.03S
$$

...NORTHERN ILLINOIS...


CITY           SKY/WX    TMP DP  RH WIND       PRES   REMARKS
CHICAGO-OHARE  CLEAR     49  41  74 S7        30.15S
CHICAGO-MIDWAY CLEAR     50  41  71 S8        30.17R
MOLINE         CLEAR     51  40  65 S8        30.08S
ROCKFORD       CLEAR     45  40  82 S5        30.13S
PEORIA         CLEAR     46  41  82 S5        30.16R
$$

NOTE: "FAIR" INDICATES FEW OR NO CLOUDS BELOW 12,000 FEET WITH NO
SIGNIFICANT WEATHER AND/OR OBSTRUCTIONS TO VISIBILITY. WIND
SPEEDS ARE IN MILES-PER-HOUR.




USA.gov is the U.S. government's official web portal to all federal, state and local government web resources and services.